| time (UTC) | temp C | wind direction | speed KPH | gust KPH | rain 1hr cm | rain 24hr cm | rain mn cm | humidity % | barometer mb |
| 20260506204504 | 8 | 297 | 0.0 | 1.6 | 0.00 | 0.15 | 0.15 | 88 | 1011.2 |
| 20260506204004 | 8 | 296 | 0.0 | 3.2 | 0.00 | 0.15 | 0.15 | 88 | 1011.2 |
| 20260506203504 | 8 | 296 | 0.0 | 3.2 | 0.00 | 0.15 | 0.15 | 88 | 1011.1 |
| 20260506203004 | 8 | 0 | 0.0 | 0.0 | 0.00 | 0.15 | 0.15 | 88 | 1011.1 |
| 20260506202004 | 8 | 0 | 0.0 | 0.0 | 0.00 | 0.20 | 0.15 | 87 | 1011.0 |
| 20260506201503 | 8 | 0 | 0.0 | 0.0 | 0.00 | 0.20 | 0.15 | 87 | 1011.0 |
| 20260506200503 | 8 | 0 | 0.0 | 0.0 | 0.00 | 0.23 | 0.15 | 87 | 1010.8 |
| 20260506200004 | 8 | 0 | 0.0 | 0.0 | 0.00 | 0.23 | 0.15 | 87 | 1010.8 |
| 20260506195504 | 8 | 0 | 0.0 | 0.0 | 0.00 | 0.23 | 0.15 | 87 | 1010.7 |
| 20260506195004 | 8 | 329 | 0.0 | 1.6 | 0.00 | 0.25 | 0.15 | 87 | 1010.7 |
| 20260506194004 | 8 | 338 | 1.6 | 3.2 | 0.00 | 0.28 | 0.15 | 86 | 1010.5 |
| 20260506193504 | 8 | 348 | 1.6 | 6.4 | 0.00 | 0.30 | 0.15 | 86 | 1010.4 |
| 20260506193005 | 8 | 343 | 1.6 | 6.4 | 0.00 | 0.30 | 0.15 | 86 | 1010.3 |
| 20260506192503 | 9 | 331 | 1.6 | 4.8 | 0.00 | 0.33 | 0.15 | 85 | 1010.2 |
| 20260506192004 | 9 | 335 | 1.6 | 6.4 | 0.00 | 0.33 | 0.15 | 85 | 1010.1 |
| 20260506191503 | 9 | 338 | 1.6 | 6.4 | 0.00 | 0.36 | 0.15 | 85 | 1010.2 |
| 20260506191004 | 9 | 342 | 0.0 | 6.4 | 0.00 | 0.36 | 0.15 | 85 | 1010.1 |
| 20260506190503 | 9 | 40 | 0.0 | 3.2 | 0.00 | 0.38 | 0.15 | 85 | 1010.1 |
| 20260506190004 | 9 | 314 | 1.6 | 4.8 | 0.00 | 0.41 | 0.15 | 85 | 1010.1 |
| 20260506185505 | 9 | 311 | 1.6 | 4.8 | 0.00 | 0.43 | 0.15 | 84 | 1010.0 |
| 20260506183005 | 9 | 347 | 3.2 | 8.0 | 0.00 | 0.58 | 0.15 | 84 | 1009.6 |
| 20260506182505 | 9 | 348 | 4.8 | 11.3 | 0.00 | 0.61 | 0.15 | 84 | 1009.6 |
| 20260506182004 | 9 | 340 | 3.2 | 11.3 | 0.00 | 0.61 | 0.15 | 84 | 1009.6 |
| 20260506181505 | 10 | 330 | 3.2 | 11.3 | 0.00 | 0.71 | 0.15 | 84 | 1009.5 |
| 20260506181004 | 10 | 338 | 3.2 | 8.0 | 0.00 | 0.79 | 0.15 | 84 | 1009.4 |
| 20260506180005 | 10 | 344 | 3.2 | 9.7 | 0.00 | 0.84 | 0.15 | 85 | 1009.3 |
| 20260506175504 | 10 | 336 | 3.2 | 8.0 | 0.00 | 0.84 | 0.15 | 85 | 1009.3 |
| 20260506174505 | 10 | 351 | 4.8 | 12.9 | 0.00 | 0.89 | 0.15 | 85 | 1009.3 |
| 20260506174005 | 10 | 348 | 4.8 | 12.9 | 0.00 | 0.89 | 0.15 | 85 | 1009.3 |
| 20260506173508 | 10 | 344 | 4.8 | 8.0 | 0.00 | 0.89 | 0.15 | 84 | 1009.4 |
| 20260506172504 | 10 | 342 | 4.8 | 12.9 | 0.00 | 0.89 | 0.15 | 84 | 1009.3 |
| 20260506172004 | 10 | 344 | 6.4 | 16.1 | 0.00 | 0.89 | 0.15 | 84 | 1009.3 |
| 20260506171004 | 10 | 343 | 3.2 | 9.7 | 0.00 | 0.89 | 0.15 | 84 | 1009.3 |
| 20260506170504 | 10 | 348 | 4.8 | 11.3 | 0.00 | 0.89 | 0.15 | 84 | 1009.2 |
| 20260506165504 | 10 | 348 | 4.8 | 14.5 | 0.00 | 0.89 | 0.15 | 83 | 1009.0 |
| 20260506165005 | 10 | 345 | 4.8 | 16.1 | 0.00 | 0.89 | 0.15 | 83 | 1009.1 |
| 20260506164004 | 10 | 356 | 4.8 | 12.9 | 0.00 | 0.89 | 0.15 | 83 | 1009.0 |
| 20260506163504 | 10 | 359 | 4.8 | 12.9 | 0.00 | 0.91 | 0.15 | 83 | 1008.9 |
| 20260506163004 | 10 | 2 | 3.2 | 9.7 | 0.00 | 0.91 | 0.15 | 84 | 1008.9 |
| 20260506162504 | 10 | 339 | 3.2 | 9.7 | 0.00 | 0.91 | 0.15 | 84 | 1008.9 |
| 20260506162004 | 10 | 346 | 4.8 | 12.9 | 0.00 | 0.91 | 0.15 | 84 | 1008.9 |
| 20260506161504 | 10 | 356 | 4.8 | 14.5 | 0.00 | 0.91 | 0.15 | 83 | 1008.9 |
| 20260506161004 | 11 | 355 | 4.8 | 14.5 | 0.00 | 0.91 | 0.15 | 83 | 1008.9 |
| 20260506160504 | 11 | 348 | 6.4 | 16.1 | 0.00 | 0.94 | 0.15 | 83 | 1008.8 |
| 20260506160004 | 11 | 347 | 4.8 | 16.1 | 0.00 | 0.94 | 0.15 | 82 | 1008.8 |
| 20260506155503 | 11 | 357 | 4.8 | 9.7 | 0.00 | 0.94 | 0.15 | 83 | 1008.8 |
| 20260506155004 | 11 | 352 | 6.4 | 12.9 | 0.00 | 0.97 | 0.15 | 83 | 1008.7 |
| 20260506154504 | 11 | 350 | 6.4 | 20.9 | 0.00 | 0.97 | 0.15 | 83 | 1008.7 |
| 20260506154004 | 11 | 353 | 4.8 | 20.9 | 0.00 | 0.97 | 0.15 | 83 | 1008.8 |
| 20260506153004 | 11 | 353 | 4.8 | 11.3 | 0.00 | 0.99 | 0.15 | 84 | 1008.6 |
| 20260506152004 | 10 | 345 | 4.8 | 14.5 | 0.00 | 0.99 | 0.15 | 84 | 1008.5 |
| 20260506151504 | 10 | 346 | 4.8 | 14.5 | 0.00 | 0.99 | 0.15 | 85 | 1008.5 |
| 20260506150004 | 10 | 346 | 6.4 | 14.5 | 0.00 | 0.99 | 0.15 | 85 | 1008.6 |
| 20260506145504 | 11 | 343 | 6.4 | 14.5 | 0.00 | 0.99 | 0.15 | 84 | 1008.5 |
| 20260506145004 | 11 | 347 | 4.8 | 14.5 | 0.00 | 1.02 | 0.15 | 84 | 1008.5 |
| 20260506144504 | 11 | 355 | 4.8 | 14.5 | 0.00 | 1.02 | 0.15 | 83 | 1008.4 |
| 20260506143504 | 11 | 347 | 4.8 | 16.1 | 0.00 | 1.02 | 0.15 | 84 | 1008.4 |
| 20260506143004 | 11 | 356 | 3.2 | 11.3 | 0.00 | 1.04 | 0.15 | 85 | 1008.5 |
| 20260506142004 | 11 | 340 | 3.2 | 9.7 | 0.00 | 1.04 | 0.15 | 85 | 1008.6 |
| 20260506141504 | 11 | 326 | 3.2 | 9.7 | 0.00 | 1.07 | 0.15 | 86 | 1008.6 |
| 20260506141003 | 11 | 334 | 3.2 | 9.7 | 0.00 | 1.07 | 0.15 | 86 | 1008.6 |
| 20260506140504 | 10 | 347 | 4.8 | 11.3 | 0.00 | 1.07 | 0.15 | 87 | 1008.6 |
| 20260506140004 | 10 | 347 | 4.8 | 11.3 | 0.00 | 1.07 | 0.15 | 87 | 1008.6 |
| 20260506135503 | 10 | 341 | 3.2 | 11.3 | 0.00 | 1.07 | 0.15 | 87 | 1008.6 |
| 20260506135004 | 10 | 333 | 3.2 | 8.0 | 0.00 | 1.09 | 0.15 | 86 | 1008.5 |
| 20260506134504 | 11 | 346 | 3.2 | 8.0 | 0.00 | 1.09 | 0.15 | 86 | 1008.6 |
| 20260506134003 | 11 | 349 | 4.8 | 9.7 | 0.00 | 1.09 | 0.15 | 85 | 1008.5 |
| 20260506132503 | 10 | 351 | 3.2 | 11.3 | 0.00 | 1.09 | 0.15 | 87 | 1008.5 |
| 20260506131510 | 10 | 345 | 4.8 | 9.7 | 0.00 | 1.09 | 0.15 | 87 | 1008.4 |
| 20260506131005 | 10 | 342 | 4.8 | 9.7 | 0.00 | 1.09 | 0.15 | 87 | 1008.5 |
| 20260506130511 | 10 | 345 | 3.2 | 8.0 | 0.00 | 1.12 | 0.15 | 87 | 1008.4 |
| 20260506125506 | 10 | 340 | 3.2 | 11.3 | 0.00 | 1.14 | 0.15 | 87 | 1008.3 |
| 20260506125004 | 10 | 347 | 4.8 | 12.9 | 0.00 | 1.17 | 0.15 | 86 | 1008.3 |
| 20260506124504 | 10 | 352 | 4.8 | 14.5 | 0.00 | 1.22 | 0.15 | 87 | 1008.2 |
| 20260506124004 | 10 | 352 | 4.8 | 14.5 | 0.00 | 1.27 | 0.15 | 87 | 1008.2 |
| 20260506123504 | 10 | 352 | 3.2 | 9.7 | 0.00 | 1.37 | 0.15 | 87 | 1008.2 |
| 20260506123004 | 10 | 357 | 3.2 | 16.1 | 0.00 | 1.50 | 0.15 | 87 | 1008.1 |
| 20260506122503 | 10 | 354 | 4.8 | 16.1 | 0.00 | 1.55 | 0.15 | 87 | 1007.9 |
| 20260506122004 | 10 | 341 | 4.8 | 12.9 | 0.00 | 1.57 | 0.15 | 87 | 1008.0 |
| 20260506121504 | 10 | 321 | 4.8 | 12.9 | 0.00 | 1.63 | 0.15 | 87 | 1007.9 |
| 20260506120503 | 10 | 336 | 4.8 | 14.5 | 0.00 | 1.70 | 0.15 | 87 | 1007.9 |
| 20260506120004 | 11 | 341 | 4.8 | 14.5 | 0.00 | 1.75 | 0.15 | 86 | 1007.9 |
| 20260506115004 | 11 | 348 | 4.8 | 9.7 | 0.00 | 1.80 | 0.15 | 87 | 1007.7 |
| 20260506114503 | 11 | 345 | 4.8 | 9.7 | 0.00 | 1.83 | 0.15 | 87 | 1007.7 |
| 20260506114003 | 10 | 345 | 4.8 | 9.7 | 0.00 | 1.83 | 0.15 | 87 | 1007.6 |
| 20260506113504 | 11 | 346 | 3.2 | 6.4 | 0.00 | 1.83 | 0.15 | 87 | 1007.7 |
| 20260506112503 | 10 | 354 | 4.8 | 9.7 | 0.00 | 1.83 | 0.15 | 88 | 1007.6 |
| 20260506111504 | 10 | 348 | 3.2 | 12.9 | 0.00 | 1.83 | 0.15 | 88 | 1007.6 |
| 20260506111004 | 10 | 337 | 3.2 | 6.4 | 0.00 | 1.83 | 0.15 | 89 | 1007.5 |
| 20260506110004 | 10 | 333 | 3.2 | 6.4 | 0.00 | 1.83 | 0.15 | 89 | 1007.4 |
| 20260506105503 | 10 | 339 | 3.2 | 6.4 | 0.00 | 1.83 | 0.15 | 89 | 1007.4 |
| 20260506104504 | 10 | 348 | 3.2 | 14.5 | 0.00 | 1.83 | 0.15 | 89 | 1007.4 |
| 20260506104004 | 10 | 342 | 4.8 | 14.5 | 0.00 | 1.83 | 0.15 | 89 | 1007.3 |
| 20260506103504 | 10 | 341 | 4.8 | 12.9 | 0.00 | 1.83 | 0.15 | 88 | 1007.3 |
| 20260506103004 | 10 | 340 | 3.2 | 12.9 | 0.00 | 1.83 | 0.15 | 89 | 1007.3 |
| 20260506102504 | 10 | 342 | 4.8 | 12.9 | 0.00 | 1.83 | 0.15 | 89 | 1007.4 |
| 20260506101004 | 10 | 346 | 4.8 | 12.9 | 0.00 | 1.83 | 0.15 | 88 | 1007.2 |
| 20260506100503 | 11 | 340 | 4.8 | 12.9 | 0.00 | 1.83 | 0.15 | 89 | 1007.1 |
| 20260506100004 | 11 | 351 | 6.4 | 16.1 | 0.00 | 1.83 | 0.15 | 90 | 1007.0 |
| 20260506095504 | 11 | 354 | 6.4 | 16.1 | 0.00 | 1.83 | 0.15 | 90 | 1007.0 |
| 20260506095005 | 10 | 348 | 4.8 | 11.3 | 0.00 | 1.83 | 0.15 | 91 | 1007.0 |
| 20260506094005 | 10 | 350 | 6.4 | 16.1 | 0.00 | 1.83 | 0.15 | 92 | 1006.9 |
| 20260506093504 | 10 | 351 | 4.8 | 16.1 | 0.00 | 1.83 | 0.15 | 91 | 1006.9 |
| 20260506093005 | 10 | 353 | 3.2 | 12.9 | 0.00 | 1.83 | 0.15 | 92 | 1006.9 |
| 20260506092505 | 10 | 354 | 3.2 | 8.0 | 0.00 | 1.83 | 0.15 | 92 | 1006.8 |
| 20260506092004 | 10 | 348 | 3.2 | 8.0 | 0.00 | 1.83 | 0.15 | 92 | 1006.8 |
| 20260506091505 | 10 | 347 | 4.8 | 14.5 | 0.00 | 1.83 | 0.15 | 93 | 1006.8 |
| 20260506091005 | 10 | 351 | 4.8 | 14.5 | 0.00 | 1.83 | 0.15 | 92 | 1006.8 |
| 20260506090505 | 10 | 351 | 3.2 | 9.7 | 0.00 | 1.83 | 0.15 | 93 | 1006.7 |
| 20260506090005 | 10 | 345 | 4.8 | 14.5 | 0.00 | 1.83 | 0.15 | 94 | 1006.7 |
| 20260506085505 | 10 | 344 | 3.2 | 14.5 | 0.00 | 1.83 | 0.15 | 94 | 1006.6 |
| 20260506085005 | 10 | 343 | 3.2 | 12.9 | 0.00 | 1.83 | 0.15 | 95 | 1006.6 |
| 20260506084505 | 10 | 341 | 4.8 | 14.5 | 0.00 | 1.83 | 0.15 | 94 | 1006.5 |
| 20260506084005 | 10 | 341 | 4.8 | 14.5 | 0.00 | 1.83 | 0.15 | 95 | 1006.4 |
| 20260506083505 | 10 | 342 | 4.8 | 17.7 | 0.00 | 1.83 | 0.15 | 95 | 1006.3 |
| 20260506083005 | 10 | 347 | 4.8 | 17.7 | 0.00 | 1.83 | 0.15 | 95 | 1006.3 |
| 20260506082005 | 10 | 344 | 3.2 | 12.9 | 0.00 | 1.83 | 0.15 | 95 | 1006.3 |
| 20260506081505 | 10 | 339 | 3.2 | 11.3 | 0.00 | 1.83 | 0.15 | 96 | 1006.3 |
| 20260506081005 | 9 | 320 | 1.6 | 6.4 | 0.00 | 1.83 | 0.15 | 96 | 1006.3 |
| 20260506073505 | 9 | 333 | 1.6 | 6.4 | 0.00 | 1.83 | 0.15 | 95 | 1006.4 |
| 20260506073006 | 9 | 333 | 1.6 | 6.4 | 0.00 | 1.83 | 0.15 | 95 | 1006.3 |
| 20260506071005 | 9 | 359 | 1.6 | 6.4 | 0.00 | 1.83 | 0.15 | 95 | 1006.2 |
| 20260506070504 | 9 | 355 | 1.6 | 6.4 | 0.00 | 1.83 | 0.15 | 96 | 1006.1 |
| 20260506062505 | 9 | 346 | 1.6 | 6.4 | 0.03 | 1.83 | 0.15 | 96 | 1005.8 |
| 20260506062005 | 9 | 349 | 1.6 | 6.4 | 0.03 | 1.83 | 0.15 | 96 | 1005.7 |
| 20260506061505 | 9 | 5 | 1.6 | 6.4 | 0.03 | 1.83 | 0.15 | 96 | 1005.8 |
| 20260506060505 | 9 | 3 | 0.0 | 4.8 | 0.03 | 1.83 | 0.15 | 96 | 1005.6 |
| 20260506051005 | 9 | 346 | 0.0 | 4.8 | 0.00 | 1.83 | 0.13 | 96 | 1005.5 |
| 20260506050504 | 9 | 346 | 0.0 | 4.8 | 0.00 | 1.83 | 0.13 | 96 | 1005.5 |
| 20260506045005 | 9 | 0 | 0.0 | 0.0 | 0.00 | 1.83 | 0.13 | 96 | 1005.4 |
| 20260506044505 | 9 | 0 | 0.0 | 0.0 | 0.00 | 1.83 | 0.13 | 96 | 1005.4 |
| 20260506044005 | 9 | 0 | 0.0 | 0.0 | 0.00 | 1.83 | 0.13 | 96 | 1005.4 |
| 20260506043505 | 9 | 0 | 0.0 | 0.0 | 0.00 | 1.83 | 0.13 | 96 | 1005.4 |
| 20260506043005 | 9 | 0 | 0.0 | 0.0 | 0.00 | 1.83 | 0.13 | 96 | 1005.4 |
| 20260506042505 | 9 | 0 | 0.0 | 0.0 | 0.00 | 1.83 | 0.13 | 96 | 1005.3 |
| 20260506042005 | 10 | 0 | 0.0 | 0.0 | 0.00 | 1.83 | 0.13 | 96 | 1005.4 |
| 20260506041505 | 10 | 0 | 0.0 | 0.0 | 0.00 | 1.83 | 0.13 | 96 | 1005.5 |
| 20260506041005 | 10 | 0 | 0.0 | 0.0 | 0.00 | 1.83 | 0.13 | 96 | 1005.5 |
| 20260506040504 | 10 | 0 | 0.0 | 0.0 | 0.00 | 1.83 | 0.13 | 96 | 1005.5 |
| 20260506035505 | 10 | 0 | 0.0 | 0.0 | 0.00 | 1.83 | 0.13 | 96 | 1005.6 |
| 20260506035005 | 10 | 0 | 0.0 | 0.0 | 0.00 | 1.83 | 0.13 | 96 | 1005.6 |
| 20260506034504 | 10 | 0 | 0.0 | 0.0 | 0.00 | 1.83 | 0.13 | 96 | 1005.7 |
| 20260506033005 | 10 | 0 | 0.0 | 0.0 | 0.00 | 1.83 | 0.13 | 96 | 1005.6 |
| 20260506032505 | 10 | 0 | 0.0 | 0.0 | 0.00 | 1.83 | 0.13 | 96 | 1005.6 |
| 20260506031505 | 10 | 0 | 0.0 | 0.0 | 0.00 | 1.83 | 0.13 | 96 | 1005.7 |
| 20260506031005 | 10 | 0 | 0.0 | 0.0 | 0.00 | 1.83 | 0.13 | 96 | 1005.7 |
| 20260506030505 | 10 | 0 | 0.0 | 0.0 | 0.00 | 1.83 | 0.13 | 96 | 1005.8 |
| 20260506030005 | 10 | 0 | 0.0 | 0.0 | 0.00 | 1.83 | 0.13 | 96 | 1005.9 |
| 20260506025505 | 10 | 0 | 0.0 | 0.0 | 0.00 | 1.83 | 0.13 | 96 | 1005.8 |
| 20260506025005 | 10 | 0 | 0.0 | 0.0 | 0.00 | 1.83 | 0.13 | 95 | 1005.9 |
| 20260506024504 | 10 | 240 | 0.0 | 1.6 | 0.00 | 1.83 | 0.13 | 95 | 1005.9 |
| 20260506024005 | 10 | 212 | 0.0 | 4.8 | 0.00 | 1.83 | 0.13 | 95 | 1005.9 |
| 20260506023505 | 10 | 210 | 1.6 | 8.0 | 0.00 | 1.83 | 0.13 | 95 | 1005.9 |
| 20260506023005 | 10 | 210 | 3.2 | 8.0 | 0.00 | 1.83 | 0.13 | 95 | 1005.9 |
| 20260506022505 | 10 | 212 | 3.2 | 8.0 | 0.00 | 1.83 | 0.13 | 95 | 1005.9 |
| 20260506021505 | 10 | 199 | 1.6 | 8.0 | 0.00 | 1.83 | 0.13 | 95 | 1005.8 |
| 20260506021005 | 11 | 213 | 3.2 | 12.9 | 0.00 | 1.83 | 0.13 | 95 | 1005.8 |
| 20260506020505 | 11 | 211 | 3.2 | 12.9 | 0.00 | 1.83 | 0.13 | 95 | 1005.8 |
| 20260506020005 | 11 | 211 | 4.8 | 12.9 | 0.00 | 1.83 | 0.13 | 95 | 1005.8 |
| 20260506015004 | 11 | 200 | 3.2 | 14.5 | 0.00 | 1.83 | 0.13 | 96 | 1005.8 |
| 20260506014504 | 11 | 207 | 4.8 | 14.5 | 0.00 | 1.83 | 0.13 | 96 | 1005.8 |
| 20260506014005 | 11 | 210 | 4.8 | 14.5 | 0.00 | 1.83 | 0.13 | 96 | 1005.8 |
| 20260506013505 | 11 | 198 | 4.8 | 16.1 | 0.00 | 1.83 | 0.13 | 96 | 1005.8 |
| 20260506012505 | 11 | 192 | 4.8 | 14.5 | 0.00 | 1.83 | 0.13 | 96 | 1005.8 |
| 20260506012005 | 11 | 200 | 4.8 | 12.9 | 0.03 | 1.83 | 0.13 | 96 | 1005.8 |
| 20260506011504 | 11 | 196 | 4.8 | 12.9 | 0.05 | 1.83 | 0.13 | 96 | 1005.9 |
| 20260506011005 | 11 | 191 | 4.8 | 12.9 | 0.08 | 1.83 | 0.13 | 96 | 1005.7 |
| 20260506010505 | 11 | 182 | 4.8 | 22.5 | 0.08 | 1.83 | 0.13 | 96 | 1005.9 |
| 20260506010005 | 11 | 175 | 4.8 | 22.5 | 0.08 | 1.83 | 0.13 | 96 | 1005.9 |
| 20260506005505 | 11 | 172 | 4.8 | 12.9 | 0.08 | 1.83 | 0.13 | 96 | 1005.9 |
| 20260506005005 | 11 | 170 | 4.8 | 14.5 | 0.08 | 1.83 | 0.13 | 96 | 1006.0 |
| 20260506004505 | 11 | 170 | 4.8 | 14.5 | 0.08 | 1.83 | 0.13 | 96 | 1006.0 |
| 20260506004005 | 11 | 172 | 4.8 | 12.9 | 0.08 | 1.83 | 0.13 | 96 | 1006.0 |
| 20260506003505 | 11 | 177 | 3.2 | 11.3 | 0.08 | 1.83 | 0.13 | 96 | 1006.0 |
| 20260506003005 | 11 | 181 | 3.2 | 9.7 | 0.08 | 1.83 | 0.13 | 96 | 1006.1 |
| 20260506002504 | 11 | 176 | 3.2 | 9.7 | 0.05 | 1.80 | 0.10 | 96 | 1006.1 |
| 20260506002005 | 11 | 171 | 3.2 | 9.7 | 0.08 | 1.80 | 0.10 | 96 | 1006.1 |
| 20260506001005 | 11 | 170 | 3.2 | 8.0 | 0.03 | 1.75 | 0.05 | 96 | 1006.2 |
| 20260506000505 | 11 | 174 | 3.2 | 8.0 | 0.03 | 1.75 | 0.05 | 96 | 1006.3 |
| 20260506000005 | 11 | 184 | 3.2 | 8.0 | 0.05 | 1.75 | 0.05 | 96 | 1006.3 |
| 20260505235505 | 11 | 188 | 3.2 | 8.0 | 0.05 | 1.75 | 0.05 | 96 | 1006.4 |
| 20260505235005 | 11 | 176 | 1.6 | 8.0 | 0.05 | 1.75 | 0.05 | 96 | 1006.4 |
| 20260505234505 | 11 | 162 | 0.0 | 6.4 | 0.05 | 1.75 | 0.05 | 97 | 1006.5 |
| 20260505234005 | 11 | 166 | 1.6 | 4.8 | 0.05 | 1.75 | 0.05 | 97 | 1006.5 |
| 20260505233505 | 11 | 168 | 1.6 | 4.8 | 0.05 | 1.75 | 0.05 | 97 | 1006.5 |
| 20260505233005 | 11 | 164 | 1.6 | 3.2 | 0.05 | 1.75 | 0.05 | 97 | 1006.5 |
| 20260505232505 | 11 | 167 | 0.0 | 3.2 | 0.05 | 1.75 | 0.05 | 96 | 1006.5 |
| 20260505232005 | 11 | 143 | 0.0 | 3.2 | 0.03 | 1.73 | 0.03 | 96 | 1006.5 |
| 20260505231505 | 11 | 141 | 0.0 | 3.2 | 0.03 | 1.73 | 0.03 | 96 | 1006.6 |
| 20260505231005 | 11 | 177 | 0.0 | 3.2 | 0.03 | 1.73 | 0.03 | 97 | 1006.6 |
| 20260505230504 | 11 | 201 | 0.0 | 3.2 | 0.03 | 1.73 | 0.03 | 97 | 1006.6 |
| 20260505230004 | 11 | 192 | 0.0 | 3.2 | 0.00 | 1.70 | 0.00 | 97 | 1006.6 |
| 20260505225004 | 11 | 174 | 0.0 | 4.8 | 0.00 | 1.70 | 0.00 | 97 | 1006.7 |
| 20260505224005 | 11 | 152 | 0.0 | 6.4 | 0.00 | 1.70 | 0.00 | 96 | 1006.8 |
| 20260505223504 | 11 | 156 | 0.0 | 6.4 | 0.00 | 1.70 | 0.00 | 96 | 1006.8 |
| 20260505223004 | 11 | 157 | 0.0 | 6.4 | 0.00 | 1.70 | 0.00 | 96 | 1006.8 |
| 20260505222005 | 11 | 0 | 0.0 | 0.0 | 0.00 | 1.70 | 0.00 | 96 | 1006.8 |
| 20260505221504 | 11 | 0 | 0.0 | 0.0 | 0.00 | 1.70 | 0.00 | 96 | 1006.9 |
| 20260505220505 | 11 | 0 | 0.0 | 0.0 | 0.00 | 1.70 | 0.00 | 96 | 1007.0 |
| 20260505220007 | 11 | 0 | 0.0 | 0.0 | 0.00 | 1.70 | 0.00 | 96 | 1007.0 |
| 20260505215505 | 11 | 0 | 0.0 | 0.0 | 0.00 | 1.70 | 1.70 | 96 | 1007.1 |
| 20260505215004 | 11 | 0 | 0.0 | 0.0 | 0.00 | 1.70 | 1.70 | 96 | 1007.1 |
| 20260505214505 | 11 | 0 | 0.0 | 0.0 | 0.00 | 1.70 | 1.70 | 96 | 1007.1 |
| 20260505214005 | 11 | 0 | 0.0 | 0.0 | 0.00 | 1.70 | 1.70 | 96 | 1007.2 |
| 20260505213505 | 11 | 0 | 0.0 | 0.0 | 0.03 | 1.70 | 1.70 | 96 | 1007.2 |
| 20260505213005 | 11 | 0 | 0.0 | 0.0 | 0.05 | 1.70 | 1.70 | 96 | 1007.2 |
| 20260505212505 | 11 | 42 | 0.0 | 1.6 | 0.05 | 1.70 | 1.70 | 96 | 1007.2 |
| 20260505211505 | 11 | 43 | 0.0 | 1.6 | 0.08 | 1.70 | 1.70 | 96 | 1007.2 |
| 20260505211004 | 11 | 0 | 0.0 | 0.0 | 0.08 | 1.70 | 1.70 | 96 | 1007.3 |
| 20260505210505 | 11 | 0 | 0.0 | 0.0 | 0.10 | 1.70 | 1.70 | 96 | 1007.3 |
| 20260505210006 | 11 | 0 | 0.0 | 0.0 | 0.10 | 1.70 | 1.70 | 96 | 1007.4 |
| 20260505205504 | 11 | 0 | 0.0 | 0.0 | 0.13 | 1.70 | 1.70 | 96 | 1007.4 |
| 20260505205005 | 11 | 0 | 0.0 | 0.0 | 0.13 | 1.70 | 1.70 | 96 | 1007.4 |